STARLINK-5250 (54200 NORAD) Tracking and Keplerian Element Data

This shows tracking and keplerian element data for the satellite.

Feedback or suggestion? Click here.




ElementValue
Catalog54200
NameSTARLINK-5250
Epoch Orbit402
Epoch Day324.91667824
Epoch Year2022
RAAN25.7215
Inclination53.2155
Eccentricity0.0002948
Argument of Perigee18.0985
Mean Anonmoly289.989
Mean Motion15.73164701
Decay Rate9.599E-05
L11 54200U 22141AV 22324.91667824 .00009599 00000+0 72845-4 0 9998
L22 54200 53.2155 25.7215 0002948 18.0985 289.9890 15.73164701 4026



Live tracking and technical data element details for STARLINK-5250 (NORAD 54200). STARLINK-5250 can be tracked NOW for your location showing map with azimuth and elevation plus other details from your city location.







IsCatalogInMostPopularTable: catalog: 54200, numindb: 8
Update: records affected: 1



GetName: 54200 STARLINK-5250

Hit Count: updated at: Sun, 04 Dec 2022 22:56:34 GMT